TimePST,TemperatureF,Dew PointF,Humidity,Sea Level PressureIn,VisibilityMPH,Wind Direction,Wind SpeedMPH,Gust SpeedMPH,PrecipitationIn,Events,Conditions,WindDirDegrees,DateUTC
12:53 AM,35.1,34.0,96,30.40,5.0,ENE,10.4,-,N/A,,Overcast,70,2013-12-11 08:53:00
1:12 AM,35.6,33.8,93,30.39,5.0,ENE,9.2,-,N/A,,Overcast,70,2013-12-11 09:12:00
1:53 AM,36.0,35.1,97,30.39,6.0,ENE,9.2,-,N/A,,Overcast,60,2013-12-11 09:53:00
2:53 AM,35.1,34.0,96,30.38,4.0,NE,8.1,-,N/A,,Overcast,40,2013-12-11 10:53:00
3:18 AM,33.8,33.8,100,30.36,1.8,ENE,6.9,-,N/A,,Overcast,60,2013-12-11 11:18:00
3:35 AM,33.8,32.0,93,30.36,0.5,ENE,4.6,-,N/A,Fog,Fog,60,2013-12-11 11:35:00
3:41 AM,32.0,32.0,100,30.36,0.2,ENE,5.8,-,N/A,Fog,Fog,70,2013-12-11 11:41:00
3:53 AM,32.0,32.0,100,30.37,0.2,East,5.8,-,N/A,Fog,Fog,80,2013-12-11 11:53:00
4:01 AM,32.0,32.0,100,30.35,0.2,East,5.8,-,N/A,Fog,Fog,80,2013-12-11 12:01:00
4:49 AM,32.0,32.0,100,30.34,0.2,NE,8.1,-,N/A,Fog,Fog,50,2013-12-11 12:49:00
4:53 AM,32.0,32.0,100,30.35,0.5,ENE,8.1,-,N/A,Fog,Fog,60,2013-12-11 12:53:00
5:53 AM,33.1,33.1,100,30.34,0.8,ENE,9.2,-,N/A,,Overcast,70,2013-12-11 13:53:00
6:13 AM,33.8,33.8,100,30.32,1.2,ENE,6.9,-,N/A,,Overcast,70,2013-12-11 14:13:00
6:53 AM,34.0,34.0,100,30.34,3.0,ENE,9.2,-,N/A,,Overcast,60,2013-12-11 14:53:00
7:24 AM,33.8,33.8,100,30.33,2.5,ENE,5.8,-,N/A,,Mostly Cloudy,70,2013-12-11 15:24:00
7:43 AM,33.8,33.8,100,30.32,3.0,ENE,6.9,-,N/A,,Overcast,70,2013-12-11 15:43:00
7:53 AM,33.1,33.1,100,30.34,2.5,ENE,3.5,-,N/A,,Overcast,60,2013-12-11 15:53:00
8:20 AM,33.8,32.0,93,30.33,1.8,ENE,8.1,-,N/A,,Mostly Cloudy,70,2013-12-11 16:20:00
8:28 AM,33.8,32.0,93,30.33,1.8,ENE,8.1,-,N/A,,Scattered Clouds,70,2013-12-11 16:28:00
8:53 AM,33.1,32.0,96,30.34,2.0,ENE,10.4,-,N/A,,Partly Cloudy,70,2013-12-11 16:53:00
9:16 AM,33.8,33.8,100,30.33,2.0,ENE,9.2,-,N/A,,Mostly Cloudy,60,2013-12-11 17:16:00
9:37 AM,33.8,33.8,100,30.34,3.0,ENE,10.4,-,N/A,,Scattered Clouds,70,2013-12-11 17:37:00
9:53 AM,34.0,33.1,96,30.34,3.0,ENE,10.4,-,N/A,,Clear,70,2013-12-11 17:53:00
11:53 AM,37.0,36.0,96,30.31,4.0,ENE,9.2,-,N/A,,Clear,70,2013-12-11 19:53:00
12:53 PM,39.0,37.0,93,30.29,4.0,East,10.4,-,N/A,,Clear,90,2013-12-11 20:53:00
1:53 PM,39.9,37.9,93,30.27,4.0,East,9.2,-,N/A,,Clear,80,2013-12-11 21:53:00
2:53 PM,41.0,37.0,86,30.24,6.0,ENE,8.1,-,N/A,,Clear,70,2013-12-11 22:53:00
6:49 PM,33.8,33.8,100,30.19,1.2,ENE,10.4,-,N/A,,Mostly Cloudy,70,2013-12-12 02:49:00
6:53 PM,34.0,33.1,96,30.20,1.0,ENE,10.4,-,N/A,,Mostly Cloudy,70,2013-12-12 02:53:00
7:15 PM,33.8,33.8,100,30.19,2.5,ENE,9.2,-,N/A,,Overcast,70,2013-12-12 03:15:00
7:28 PM,33.8,33.8,100,30.19,3.0,ENE,10.4,-,N/A,,Mostly Cloudy,70,2013-12-12 03:28:00
7:53 PM,33.1,33.1,100,30.20,3.0,ENE,8.1,-,N/A,,Mostly Cloudy,70,2013-12-12 03:53:00
8:53 PM,33.1,33.1,100,30.19,4.0,ENE,9.2,-,N/A,,Overcast,70,2013-12-12 04:53:00
9:49 PM,33.8,32.0,93,30.17,4.0,ENE,11.5,-,N/A,,Scattered Clouds,60,2013-12-12 05:49:00
9:53 PM,33.1,32.0,96,30.19,4.0,ENE,10.4,-,N/A,,Scattered Clouds,60,2013-12-12 05:53:00
10:00 PM,33.8,32.0,93,30.17,4.0,ENE,9.2,-,N/A,,Mostly Cloudy,60,2013-12-12 06:00:00
10:53 PM,33.1,32.0,96,30.16,3.0,ENE,12.7,-,N/A,,Overcast,70,2013-12-12 06:53:00
11:53 PM,32.0,32.0,100,30.16,5.0,East,8.1,-,N/A,,Scattered Clouds,80,2013-12-12 07:53:00